Watford City, ND

1:29 PM CDT on August 23, 2017 (GMT -0500)
Watford City

Weather History for KS25 - January, 2013

Change the Weather History Date:

Thursday, January 31, 2013

  Actual Average (KISN) Record (KISN)
Temperature  
Mean Temperature -10 °F -  
Max Temperature 0 °F 21 °F 54 °F (1931)
Min Temperature -20 °F 0 °F -36 °F (1917)
Degree Days  
Heating Degree Days 75    
Moisture  
Dew Point -21 °F    
Average Humidity 68    
Maximum Humidity 76    
Minimum Humidity 59    
Precipitation  
Precipitation 0.03 in - - ()
Sea Level Pressure  
Sea Level Pressure 30.20 in    
Wind  
Wind Speed 14 mph (West)    
Max Wind Speed 22 mph    
Max Gust Speed 28 mph    
Visibility 9 miles    
Events Rain , Snow    
Averages and records for this station are not official NWS values.
T = Trace of Precipitation, MM = Missing Value Source: NWS Daily Summary

Daily Weather History Graph

Daily Weather History Graph

Search for Another Location

Airport or City:

Trip Planner

Search our weather history database for the weather conditions in past years. The results will help you decide how hot, cold, wet, or windy it might be!

Date:

Astronomy

Jan. 31, 2013 Rise Set
Actual Time 8:21 AM CST 5:52 PM CST
Civil Twilight 7:47 AM CST 6:25 PM CST
Nautical Twilight 7:10 AM CST 7:03 PM CST
Astronomical Twilight 6:34 AM CST 7:39 PM CST
Moon 11:25 PM CST (1/31) 9:57 AM CST (1/31)
Length of Visible Light 10h 38m
Length of Day
9h 31m
Waning Gibbous, 79% of the Moon is Illuminated
Jan 31
Waning Gibbous
Feb 3
Last Quarter
Feb 10
New
Feb 17
First Quarter
Feb 25
Full

Hourly Weather History & Observations

Time (CST) Temp. Windchill Dew Point Humidity Pressure Visibility Wind Dir Wind Speed Gust Speed Precip Events Conditions
12:15 AM -11.2 °F -36.4 °F -18.4 °F 70% 30.08 in 1.8 mi NNW 19.6 mph - 0.02 in Snow Light Snow
12:35 AM -13.0 °F -40.0 °F -20.2 °F 70% 30.09 in 1.5 mi NNW 21.9 mph 25.3 mph 0.03 in Snow Light Snow
12:55 AM -13.0 °F -38.2 °F -20.2 °F 70% 30.10 in 3.0 mi NNW 18.4 mph - 0.03 in Snow Light Snow
1:15 AM -13.0 °F -40.0 °F -20.2 °F 70% 30.10 in 1.8 mi NNW 21.9 mph 26.5 mph N/A Snow Light Snow
1:35 AM -14.8 °F -41.2 °F -22.0 °F 70% 30.12 in 3.0 mi NW 19.6 mph 27.6 mph N/A Rain Light Freezing Rain
1:55 AM -14.8 °F -41.8 °F -22.0 °F 70% 30.13 in 6.0 mi NNW 20.7 mph 26.5 mph N/A Rain Light Freezing Rain
2:15 AM -14.8 °F -39.8 °F -22.0 °F 70% 30.14 in 3.0 mi NW 17.3 mph - N/A Rain Light Freezing Rain
2:35 AM -14.8 °F -38.3 °F -22.0 °F 70% 30.15 in 5.0 mi NNW 15.0 mph 21.9 mph N/A Rain Light Freezing Rain
2:55 AM -16.6 °F -38.9 °F -22.0 °F 76% 30.16 in 7.0 mi NW 12.7 mph 19.6 mph N/A   Mostly Cloudy
3:15 AM -16.6 °F -38.9 °F -22.0 °F 76% 30.17 in 6.0 mi NW 12.7 mph - N/A   Haze
3:35 AM -16.6 °F -37.9 °F -22.0 °F 76% 30.17 in 8.0 mi NNW 11.5 mph - N/A   Overcast
3:55 AM -16.6 °F -40.6 °F -23.8 °F 70% 30.18 in 9.0 mi NNW 15.0 mph - N/A   Mostly Cloudy
4:15 AM -16.6 °F -41.4 °F -23.8 °F 70% 30.19 in 7.0 mi NW 16.1 mph - N/A   Mostly Cloudy
4:35 AM -16.6 °F -38.9 °F -23.8 °F 70% 30.20 in 8.0 mi WNW 12.7 mph - N/A   Overcast
4:55 AM -18.4 °F -40.2 °F -25.6 °F 70% 30.21 in 10.0 mi WNW 11.5 mph - N/A   Mostly Cloudy
5:15 AM -18.4 °F -40.2 °F -25.6 °F 70% 30.21 in 10.0 mi WNW 11.5 mph 19.6 mph N/A   Partly Cloudy
5:35 AM -18.4 °F -42.9 °F -25.6 °F 70% 30.22 in 10.0 mi WNW 15.0 mph - N/A   Clear
5:55 AM -18.4 °F -42.1 °F -25.6 °F 70% 30.22 in 10.0 mi NW 13.8 mph 19.6 mph N/A   Clear
6:15 AM -18.4 °F -39.1 °F -25.6 °F 70% 30.24 in 10.0 mi WNW 10.4 mph - N/A   Clear
6:35 AM -18.4 °F -40.2 °F -25.6 °F 70% 30.26 in 10.0 mi West 11.5 mph - N/A   Clear
6:55 AM -18.4 °F -37.9 °F -25.6 °F 70% 30.26 in 10.0 mi WNW 9.2 mph - N/A   Clear
7:15 AM -18.4 °F -35.1 °F -25.6 °F 70% 30.26 in 10.0 mi WNW 6.9 mph - N/A   Clear
7:35 AM -18.4 °F -37.9 °F -25.6 °F 70% 30.26 in 10.0 mi WNW 9.2 mph - N/A   Clear
7:55 AM -20.2 °F -41.3 °F -27.4 °F 69% 30.26 in 10.0 mi WNW 10.4 mph - N/A   Clear
8:15 AM -20.2 °F -40.1 °F -27.4 °F 69% 30.27 in 10.0 mi WNW 9.2 mph - N/A   Clear
8:35 AM -18.4 °F -41.2 °F -27.4 °F 63% 30.27 in 10.0 mi WNW 12.7 mph - N/A   Clear
8:55 AM -18.4 °F -41.2 °F -25.6 °F 70% 30.28 in 10.0 mi WNW 12.7 mph - N/A   Clear
9:15 AM -18.4 °F -42.1 °F -25.6 °F 70% 30.29 in 10.0 mi West 13.8 mph - N/A   Clear
9:35 AM -18.4 °F -43.7 °F -25.6 °F 70% 30.30 in 10.0 mi West 16.1 mph - N/A   Clear
9:55 AM -18.4 °F -42.9 °F -25.6 °F 70% 30.30 in 10.0 mi West 15.0 mph 19.6 mph N/A   Clear
10:15 AM -16.6 °F -37.9 °F -25.6 °F 64% 30.30 in 10.0 mi West 11.5 mph - N/A   Clear
10:35 AM -16.6 °F -36.8 °F -25.6 °F 64% 30.30 in 10.0 mi West 10.4 mph - N/A   Clear
10:55 AM -16.6 °F -39.8 °F -25.6 °F 64% 30.30 in 10.0 mi West 13.8 mph - N/A   Clear
11:15 AM -14.8 °F -37.5 °F -23.8 °F 64% 30.31 in 10.0 mi West 13.8 mph - N/A   Clear
11:35 AM -14.8 °F -34.6 °F -23.8 °F 64% 30.30 in 10.0 mi West 10.4 mph - N/A   Clear
11:55 AM -14.8 °F -33.5 °F -23.8 °F 64% 30.30 in 10.0 mi WNW 9.2 mph - N/A   Clear
12:15 PM -13.0 °F -34.3 °F -22.0 °F 64% 30.30 in 10.0 mi West 12.7 mph - N/A   Clear
12:35 PM -13.0 °F -33.4 °F -22.0 °F 64% 30.29 in 10.0 mi West 11.5 mph - N/A   Clear
12:55 PM -13.0 °F -34.3 °F -22.0 °F 64% 30.28 in 10.0 mi WNW 12.7 mph - N/A   Clear
1:15 PM -11.2 °F -35.2 °F -22.0 °F 59% 30.28 in 10.0 mi West 17.3 mph - N/A   Clear
1:35 PM -11.2 °F -33.7 °F -22.0 °F 59% 30.27 in 10.0 mi West 15.0 mph - N/A   Clear
1:55 PM -11.2 °F -34.4 °F -22.0 °F 59% 30.26 in 10.0 mi West 16.1 mph - N/A   Clear
2:15 PM -11.2 °F -32.9 °F -20.2 °F 64% 30.25 in 10.0 mi West 13.8 mph - N/A   Clear
2:35 PM -11.2 °F -33.7 °F -20.2 °F 64% 30.24 in 10.0 mi West 15.0 mph - N/A   Clear
2:55 PM -9.4 °F -29.8 °F -20.2 °F 59% 30.23 in 10.0 mi WSW 12.7 mph - N/A   Clear
3:15 PM -9.4 °F -29.8 °F -20.2 °F 59% 30.23 in 10.0 mi West 12.7 mph - N/A   Clear
3:35 PM -9.4 °F -27.9 °F -20.2 °F 59% 30.22 in 10.0 mi West 10.4 mph - N/A   Clear
3:55 PM -9.4 °F -29.8 °F -18.4 °F 65% 30.21 in 10.0 mi West 12.7 mph - N/A   Clear
4:15 PM -9.4 °F -26.8 °F -18.4 °F 65% 30.21 in 10.0 mi WSW 9.2 mph - N/A   Clear
4:35 PM -9.4 °F -25.6 °F -18.4 °F 65% 30.21 in 10.0 mi West 8.1 mph - N/A   Clear
4:55 PM -9.4 °F -25.6 °F -18.4 °F 65% 30.21 in 10.0 mi West 8.1 mph - N/A   Clear
5:15 PM -9.4 °F -24.3 °F -18.4 °F 65% 30.20 in 10.0 mi West 6.9 mph - N/A   Clear
5:35 PM -9.4 °F -20.9 °F -18.4 °F 65% 30.19 in 10.0 mi West 4.6 mph - N/A   Clear
5:55 PM -11.2 °F -20.6 °F -18.4 °F 70% 30.18 in 10.0 mi WSW 3.5 mph - N/A   Clear
6:15 PM -11.2 °F - -18.4 °F 70% 30.18 in 10.0 mi Calm Calm - N/A   Clear
6:35 PM -11.2 °F - -18.4 °F 70% 30.17 in 10.0 mi Calm Calm - N/A   Partly Cloudy
7:15 PM -11.2 °F - -18.4 °F 70% 30.16 in 10.0 mi Calm Calm - N/A   Mostly Cloudy
7:35 PM -9.4 °F - -16.6 °F 71% 30.14 in 10.0 mi Calm Calm - N/A   Overcast
8:15 PM -5.8 °F -16.7 °F -14.8 °F 65% 30.13 in 10.0 mi South 4.6 mph - N/A   Overcast
8:35 PM -4.0 °F -14.6 °F -13.0 °F 65% 30.13 in 10.0 mi South 4.6 mph - N/A   Overcast
8:55 PM -5.8 °F -18.4 °F -13.0 °F 71% 30.12 in 10.0 mi ESE 5.8 mph - N/A   Overcast
9:15 PM -5.8 °F -19.9 °F -13.0 °F 71% 30.11 in 10.0 mi SE 6.9 mph - N/A   Overcast
9:35 PM -2.2 °F -15.6 °F -9.4 °F 71% 30.10 in 10.0 mi SSW 6.9 mph - N/A   Mostly Cloudy
9:55 PM -0.4 °F -12.0 °F -9.4 °F 66% 30.09 in 10.0 mi South 5.8 mph - N/A Snow Light Snow
10:15 PM -0.4 °F -13.4 °F -9.4 °F 66% 30.08 in 10.0 mi South 6.9 mph - N/A   Overcast
10:35 PM -0.4 °F -10.4 °F -9.4 °F 66% 30.07 in 10.0 mi South 4.6 mph - N/A Snow Light Snow
10:55 PM -0.4 °F -13.4 °F -7.6 °F 72% 30.06 in 10.0 mi South 6.9 mph - N/A   Overcast
11:15 PM -0.4 °F -12.0 °F -9.4 °F 66% 30.05 in 10.0 mi SE 5.8 mph - N/A   Overcast
11:35 PM -2.2 °F -15.6 °F -9.4 °F 71% 30.04 in 10.0 mi ESE 6.9 mph - N/A Snow Light Snow